Date String (YYYY-MM-DD hh:mm:ss) UTC,Instrument flags,Ambient pressure (hPa),Sample flow (lpm),Bypass flow (lpm),Sample temperature (°C),Ambient temperature (°C),ASC tube jacket temperature (°C),LED temperature (°C),Box temperature (°C),Sample RH (%),Span deviation,Mass concentration (μg/m³),Mass concentration (μg/m³),Mass concentration (μg/m³)
DateTimeUTC,F1_M11,P_M11,Q1_M11,Q2_M11,T1_M11,T2_M11,T3_M11,T4_M11,T5_M11,U1_M11,ZSPAN_M11,X0_M11,X2_M11,X1_M11
2022-02-20 13:00:00,,0818.9,5.01,0.00,21.8,21.0,00.0,31.0,23.5,05.8,0000.0,0001.10,0000.59,0000.43
2022-02-20 13:01:00,,0819.0,4.99,0.00,21.8,21.0,00.0,31.0,23.5,05.9,0000.0,0001.03,0000.57,0000.43
2022-02-20 13:02:00,,0819.1,5.00,0.00,21.8,21.0,00.0,31.0,23.4,06.4,0000.0,0001.04,0000.57,0000.44
2022-02-20 13:03:00,,0819.1,5.00,0.00,21.8,21.0,00.0,30.9,23.5,06.8,0000.0,0001.08,0000.58,0000.44
2022-02-20 13:04:00,,0819.1,5.01,0.00,21.8,21.1,00.0,30.9,23.5,06.8,0000.0,0001.04,0000.57,0000.43
2022-02-20 13:05:00,,0819.1,5.01,0.00,21.8,21.1,00.0,30.9,23.5,06.8,0000.0,0001.05,0000.57,0000.43
2022-02-20 13:06:00,,0819.2,4.99,0.00,21.8,21.2,00.0,30.9,23.6,06.9,0000.0,0001.02,0000.56,0000.43
2022-02-20 13:07:00,,0819.2,4.99,0.00,21.8,21.2,00.0,30.9,23.6,07.1,0000.0,0000.81,0000.54,0000.42
2022-02-20 13:08:00,,0819.1,5.01,0.00,21.9,21.2,00.0,30.9,23.6,07.0,0000.0,0000.80,0000.55,0000.43
2022-02-20 13:09:00,,0819.1,5.00,0.00,21.9,21.3,00.0,30.9,23.7,07.1,0000.0,0000.85,0000.58,0000.43
2022-02-20 13:10:00,,0819.2,4.99,0.00,21.9,21.3,00.0,30.9,23.7,06.8,0000.0,0000.92,0000.60,0000.43
2022-02-20 13:11:00,,0819.3,5.00,0.00,21.9,21.3,00.0,30.9,23.7,06.7,0000.0,0000.98,0000.62,0000.43
2022-02-20 13:12:00,,0819.2,5.01,0.00,21.9,21.4,00.0,30.9,23.8,06.8,0000.0,0001.10,0000.64,0000.44
2022-02-20 13:13:00,,0819.2,5.00,0.00,22.0,21.4,00.0,30.9,23.8,06.8,0000.0,0001.13,0000.63,0000.43
2022-02-20 13:14:00,,0819.2,4.99,0.00,22.0,21.4,00.0,30.9,23.8,06.8,0000.0,0001.12,0000.63,0000.43
2022-02-20 13:15:00,,0819.3,5.00,0.00,22.0,21.4,00.0,30.9,23.8,06.8,0000.0,0001.14,0000.65,0000.44
2022-02-20 13:16:00,,0819.2,4.99,0.00,22.0,21.4,00.0,30.9,23.8,06.7,0000.0,0001.20,0000.66,0000.45
2022-02-20 13:17:00,,0819.2,5.02,0.00,22.0,21.5,00.0,30.9,23.9,07.0,0000.0,0001.24,0000.66,0000.45
2022-02-20 13:18:00,,0819.2,5.00,0.00,22.0,21.5,00.0,30.9,23.8,06.9,0000.0,0001.18,0000.62,0000.45
2022-02-20 13:19:00,,0819.2,5.00,0.00,22.0,21.5,00.0,31.0,23.8,06.9,0000.0,0001.16,0000.63,0000.45
2022-02-20 13:20:00,,0819.3,5.00,0.00,22.0,21.5,00.0,31.0,23.9,06.6,0000.0,0001.15,0000.62,0000.46
2022-02-20 13:21:00,,0819.2,4.99,0.00,22.1,21.5,00.0,31.0,23.9,06.6,0000.0,0001.11,0000.61,0000.46
2022-02-20 13:22:00,,0819.2,5.00,0.00,22.1,21.5,00.0,31.0,23.9,06.6,0000.0,0001.10,0000.57,0000.45
2022-02-20 13:23:00,,0819.3,5.00,0.00,22.1,21.5,00.0,31.0,23.9,06.5,0000.0,0001.64,0000.58,0000.45
2022-02-20 13:24:00,,0819.4,5.01,0.00,22.1,21.5,00.0,31.0,23.9,06.5,0000.0,0001.72,0000.60,0000.45
2022-02-20 13:25:00,,0819.4,5.00,0.00,22.1,21.6,00.0,31.0,24.0,06.7,0000.0,0001.73,0000.59,0000.46
2022-02-20 13:26:00,,0819.3,4.99,0.00,22.1,21.6,00.0,31.0,24.0,06.6,0000.0,0001.73,0000.59,0000.46
2022-02-20 13:27:00,,0819.2,5.00,0.00,22.1,21.6,00.0,31.0,24.0,06.5,0000.0,0001.67,0000.57,0000.45
2022-02-20 13:28:00,,0819.2,5.01,0.00,22.1,21.6,00.0,31.0,24.0,06.5,0000.0,0001.59,0000.56,0000.45
2022-02-20 13:29:00,,0819.2,5.00,0.00,22.1,21.6,00.0,31.0,24.0,06.4,0000.0,0001.58,0000.56,0000.45
2022-02-20 13:30:00,,0819.2,4.99,0.00,22.2,21.6,00.0,31.1,24.0,06.3,0000.0,0001.55,0000.55,0000.46
2022-02-20 13:31:00,,0819.0,5.00,0.00,22.2,21.6,00.0,31.1,24.0,06.4,0000.0,0001.89,0000.56,0000.46
2022-02-20 13:32:00,,0819.1,4.99,0.00,22.2,21.6,00.0,31.1,24.0,06.4,0000.0,0002.02,0000.57,0000.46
2022-02-20 13:33:00,,0819.2,5.01,0.00,22.1,21.6,00.0,31.1,23.9,06.4,0000.0,0002.06,0000.59,0000.46
2022-02-20 13:34:00,,0819.2,5.00,0.00,22.1,21.5,00.0,31.1,23.9,06.4,0000.0,0001.37,0000.57,0000.46
2022-02-20 13:35:00,,0819.2,5.00,0.00,22.1,21.5,00.0,31.1,23.9,06.5,0000.0,0001.76,0000.58,0000.46
2022-02-20 13:36:00,,0819.3,4.99,0.00,22.1,21.5,00.0,31.1,23.9,06.8,0000.0,0002.51,0000.60,0000.46
2022-02-20 13:37:00,,0819.4,5.00,0.00,22.1,21.5,00.0,31.1,23.9,06.8,0000.0,0002.52,0000.60,0000.46
2022-02-20 13:38:00,,0819.5,5.01,0.00,22.1,21.5,00.0,31.1,23.9,06.6,0000.0,0002.52,0000.61,0000.46
2022-02-20 13:39:00,,0819.6,5.01,0.00,22.1,21.5,00.0,31.1,23.9,06.4,0000.0,0002.59,0000.64,0000.47
2022-02-20 13:40:00,,0819.5,5.00,0.00,22.1,21.5,00.0,31.1,23.9,06.3,0000.0,0002.62,0000.64,0000.47
2022-02-20 13:41:00,,0819.6,4.99,0.00,22.1,21.5,00.0,31.1,23.9,06.2,0000.0,0002.65,0000.65,0000.47
2022-02-20 13:42:00,,0819.5,5.00,0.00,22.1,21.5,00.0,31.1,23.9,06.2,0000.0,0002.33,0000.66,0000.47
2022-02-20 13:43:00,,0819.5,5.00,0.00,22.1,21.5,00.0,31.1,23.9,06.1,0000.0,0002.34,0000.66,0000.47
2022-02-20 13:44:00,,0819.5,5.00,0.00,22.1,21.5,00.0,31.1,23.9,06.1,0000.0,0002.28,0000.63,0000.46
2022-02-20 13:45:00,,0819.4,5.00,0.00,22.1,21.5,00.0,31.1,23.9,06.0,0000.0,0002.22,0000.62,0000.46
2022-02-20 13:46:00,,0819.4,5.00,0.00,22.1,21.4,00.0,31.1,23.9,06.0,0000.0,0001.75,0000.61,0000.46
2022-02-20 13:47:00,,0819.4,4.99,0.00,22.1,21.6,00.0,31.1,23.9,06.0,0000.0,0000.98,0000.61,0000.46
2022-02-20 13:48:00,,0819.4,4.98,0.00,22.2,22.3,00.0,31.1,24.1,06.0,0000.0,0001.03,0000.63,0000.46
2022-02-20 13:49:00,,0819.4,5.01,0.00,22.3,23.0,00.0,31.2,24.3,06.0,0000.0,0001.07,0000.65,0000.46
2022-02-20 13:50:00,,0819.4,4.99,0.00,22.4,22.9,00.0,31.2,24.4,05.6,0000.0,0001.28,0000.65,0000.46
2022-02-20 13:51:00,,0819.4,4.99,0.00,22.4,22.7,00.0,31.2,24.3,05.6,0000.0,0001.94,0000.65,0000.46
2022-02-20 13:52:00,,0819.5,5.00,0.00,22.4,22.5,00.0,31.2,24.3,05.8,0000.0,0001.94,0000.64,0000.46
2022-02-20 13:53:00,,0819.5,5.02,0.00,22.4,22.3,00.0,31.2,24.3,05.9,0000.0,0001.84,0000.60,0000.45
2022-02-20 13:54:00,,0819.5,5.01,0.00,22.4,22.2,00.0,31.3,24.3,05.8,0000.0,0001.74,0000.60,0000.45
2022-02-20 13:55:00,,0819.4,4.99,0.00,22.4,22.2,00.0,31.3,24.2,05.6,0000.0,0001.83,0000.64,0000.45
2022-02-20 13:56:00,,0819.4,4.99,0.00,22.4,22.0,00.0,31.3,24.2,05.9,0000.0,0001.86,0000.65,0000.46
2022-02-20 13:57:00,,0819.4,5.01,0.00,22.4,22.0,00.0,31.3,24.2,06.0,0000.0,0001.83,0000.64,0000.46
2022-02-20 13:58:00,,0819.4,5.01,0.00,22.4,22.0,00.0,31.3,24.2,06.1,0000.0,0001.82,0000.62,0000.46
2022-02-20 13:59:00,,0819.3,5.00,0.00,22.4,21.9,00.0,31.3,24.2,06.0,0000.0,0001.73,0000.59,0000.46
